User: anonymous   Login
Location: Newark
(55.7816°N, 8.2389°E)
Time: 14:06:33
(UTC+00:00)
Language:

CAS-4B - Orbit

View from above orbital plane
View from above orbital plane
View from above satellite
View from above satellite

Ground track
Ground track

The orbit data is extracted from the following two-line orbital elements,

1 42759U 17034B   20057.02757774  .00000285  00000-0  30873-4 0  9995
2 42759  43.0191 284.7220 0011221  35.5153 107.7019 15.09751620148971
Epoch (UTC): 26 February 2020 00:39:42
Eccentricity: 0.0011221
inclination: 43.0191°
perigee height: 529 km
apogee height: 545 km
right ascension of ascending node: 284.7220°
argument of perigee: 35.5153°
revolutions per day: 15.09751620
mean anomaly at epoch: 107.7019°
orbit number at epoch: 14897

The dashed part of the orbit path shows where the satellite is in the earth's shadow,  

DLR